IRAS

导读

IRAS即红外天文卫星,由美、英、荷三国合作研制,于1983年1月26日(资料记载为24日)发射升空,进入距地面约900千米的极轨道运行。它是人类首颗实现红外波段全天巡视的天文卫星,搭载液氦制冷望远镜,总计记录35万个红外源,揭示了银心形态,发现新彗星与织女星尘埃环,革新了红外空间天文学,为后续红外天文项目奠定关键基础,1983年11月因制冷剂耗尽终止任务。

基本信息
目录编号:
13777
目录名称:
IRAS
国际标识:
1983-004A
轨道中心:
EARTH
卫星名称:
IRAS
卫星全名:
--
卫星状态:
在轨 (已飞行15934 天)
发射日期:
1983-01-26 UTC
国别 :
美国 (US)
星等 :
--
该卫星已列入 空间交会检测服务 Space Conjunction Data Service (SCDS) ,当前飞行风险评估等级: 无高风险
轨道信息
数据来源 国际轨道数据 AOE轨道数据
星历时间 2026-09-11T06:18:03+0800
8小时前
查看轨道信息
2026-09-10T04:00:00+0800
1天前
查看轨道信息
半长轴 7268.513km 7268.518km
偏心率 0.0019595 0.0019514
轨道倾角 99.071° 99.071°
近地点辐角 88.166° 91.164°
升交点赤经 74.885° 73.796°
平近点角 272.175° 145.147°
近地点 876.133km 876.197km
远地点 904.619km 904.565km
周期 102.785分钟 102.785分钟
每日圈数 14.009882 14.009868
详细信息
使用方式:
暂无
2D轨道图
3D轨道图
轨道高度分析图
轨道倾角分析图
轨道综合分析图
查看轨道综合分析图
交会数据列表
事件ID 空间交会对象 最接近时刻(TCA) 交会距离 交会风险概率(CRP) 交会风险指数(CRI) 操作
CDM_260913-175901-377703-117221
IRAS (13777)
2026-09-13T
17:59:27+0000
1.299 km
极远距离
1.080618E-5 中风险 0.56
CDM_260913-105801-377703-133922
IRAS (13777)
2026-09-13T
10:58:15+0000
1.649 km
极远距离
4.891778E-6 低风险 0.49
CDM_260912-154601-377706-155824
IRAS (13777)
2026-09-12T
15:46:51+0000
1.667 km
极远距离
2.051134E-6 低风险 0.41
CDM_260911-234400-282801-377728
GGSE 4 (2828)
IRAS (13777)
2026-09-11T
23:44:10+0000
2.539 km
极远距离
1.688452E-6 低风险 0.4
CDM_260909-005901-377703-123926
IRAS (13777)
2026-09-09T
00:59:26+0000
2.783 km
极远距离
1.463615E-6 低风险 0.38
CDM_260913-184601-377702-261321
IRAS (13777)
2026-09-13T
18:46:10+0000
2.792 km
极远距离
6.904955E-7 极低风险 0.32
与全量物体交会距离演化趋势
与全量物体交会风险概率演化趋势